x

8775870 - Malaquite Beach (corpus Christi), Tx (mqtt2) Weather Station

3:18am - Tue 12th Dec 2017 All times are CST. -6 hours from GMT.

  • Wind
    9mph, 10mph gusts
  • Sea Temp 62°f
  • Air Temp 52°f
  • Sea Pressure 1023.5mb
  • 8775870 - Malaquite Beach (corpus Christi), Tx
  • 8775870 - Malaquite Beach (corpus Christi), Tx

More Historic Weather Station data

Upgrade to MSW Pro to gain access to the past 30 days of data for over 8000 Wavebouys and Weather Stations around the globe.

Join

Comparision Forecast

View Surf forecast
   
Tue 12/12 3:18am 9 10 mph 1023.5mb 62f 52f
3:12am 9 10 mph 1023.5mb 62f 52f
3:06am 10 10 mph 1023.5mb 62f 53f
3:00am 9 10 mph 1023.5mb 61f 53f
2:54am 8 9 mph 1023.4mb 61f 53f
2:48am 9 9 mph 1023.4mb 61f 53f
2:42am 8 9 mph 1023.5mb 61f 53f
2:36am 8 9 mph 1023.6mb 61f 53f
2:30am 8 9 mph 1023.4mb 61f 53f
2:24am 7 8 mph 1023.5mb 61f 54f
2:18am 8 10 mph 1023.5mb 61f 54f
2:12am 9 10 mph 1023.5mb 61f 55f
2:06am 9 10 mph 1023.3mb 61f 54f
2:00am 9 9 mph 1023.3mb 61f 55f
1:54am 8 9 mph 1023.2mb 61f 54f
1:48am 8 9 mph 1023.1mb 61f 55f
1:42am 8 9 mph 1023.2mb 61f 55f
1:36am 8 9 mph 1023.3mb 61f 55f
1:30am 9 11 mph 1023.2mb 61f 55f
1:24am 8 9 mph 1023.2mb 61f 55f
1:18am 8 9 mph 1023.2mb 61f 55f
1:12am 8 10 mph 1023.1mb 61f 55f
1:06am 9 10 mph 1023.2mb 61f 55f
1:00am 9 13 mph 1023.2mb 61f 55f
12:54am 10 11 mph 1023.2mb 61f 55f
12:48am 10 11 mph 1023.3mb 61f -
12:42am 8 9 mph 1023.3mb 61f -
12:36am 8 9 mph 1023.4mb 61f -
12:30am 9 10 mph 1023.4mb 61f 55f
12:24am 8 9 mph 1023.4mb 61f 55f
12:18am 8 9 mph 1023.4mb 61f 55f
12:12am 8 10 mph 1023.4mb 61f 55f
12:06am 10 11 mph 1023.5mb 61f 55f
12:00am 10 11 mph 1023.6mb 61f 56f
Mon 12/11 11:54pm 10 11 mph 1023.7mb 61f 55f
11:48pm 11 11 mph 1023.7mb 61f 56f
11:42pm 9 11 mph 1023.6mb 61f 56f
11:36pm 10 13 mph 1023.6mb 61f 57f
11:30pm 10 11 mph 1023.6mb 61f 57f
11:24pm 9 10 mph 1023.6mb 61f 57f
11:18pm 8 9 mph 1023.7mb 61f 57f
11:12pm 8 10 mph 1023.8mb 61f 57f
11:06pm 10 11 mph 1023.8mb 61f 57f
11:00pm 10 11 mph 1023.7mb 61f 57f
10:54pm 7 10 mph 1023.5mb 61f 57f
10:48pm 9 11 mph 1023.4mb 61f 57f
10:42pm 10 13 mph 1023.4mb 61f 58f
10:36pm 10 13 mph 1023.3mb 61f 58f
10:30pm 9 10 mph 1023.3mb 61f 58f
10:24pm 9 11 mph 1023.2mb 61f 59f
10:18pm 10 11 mph 1023.1mb 61f 59f
10:12pm 10 11 mph 1023.4mb 61f 58f
10:06pm 9 9 mph 1023.5mb 61f 59f
10:00pm 8 8 mph 1023.4mb 61f 60f
9:54pm 8 13 mph 1023.3mb 61f 62f
9:48pm 11 14 mph 1023.1mb 61f 64f
9:42pm 13 14 mph 1023.1mb 61f 64f
9:36pm 13 15 mph 1023.3mb 61f 64f
9:30pm 14 15 mph 1023.3mb 61f 64f
9:24pm 14 15 mph 1023.1mb 61f 64f
9:18pm 14 14 mph 1023.1mb 61f 64f
9:12pm 11 14 mph 1023.2mb 61f 64f
9:06pm 11 13 mph 1023.3mb 61f 64f
9:00pm 10 13 mph 1023.3mb 61f 64f
8:48pm 10 13 mph 1023.4mb 61f 64f
8:42pm 10 13 mph 1023.3mb 61f 64f
8:36pm 10 11 mph 1023.2mb 61f 64f
8:30pm 10 11 mph 1023.2mb 61f 64f
8:24pm 10 11 mph 1023.3mb 61f 64f
8:18pm 10 10 mph 1023.3mb 61f 64f
8:12pm 9 10 mph 1023.3mb 61f 64f
8:06pm 8 9 mph 1023.3mb 61f 64f
8:00pm 8 9 mph 1023.3mb 61f 64f
7:54pm 9 10 mph 1023.2mb 61f 64f
7:48pm 9 11 mph 1023.3mb 61f 64f
7:42pm 10 11 mph 1023.3mb 61f 64f
7:36pm 10 11 mph 1023.3mb 61f 64f
7:30pm 9 11 mph 1023.2mb 61f 64f
7:24pm 11 11 mph 1023.2mb 61f 64f
7:18pm 9 10 mph 1023.3mb 61f 64f
7:12pm 8 9 mph 1023.2mb 61f 64f
7:06pm 10 10 mph 1023.2mb 61f 64f
7:00pm 9 10 mph 1023.2mb 61f 64f
6:54pm 8 9 mph 1023.3mb 61f 64f
6:48pm 8 9 mph 1023.3mb 61f 64f
6:42pm 8 8 mph 1023.3mb 61f 64f
6:36pm 7 8 mph 1023.1mb 61f 64f
6:30pm 6 7 mph 1023mb 61f 64f
6:24pm 7 8 mph 1023.1mb 61f 64f
6:18pm 7 9 mph 1023.1mb 61f -
6:12pm 8 9 mph 1023.2mb 61f -
6:06pm 9 9 mph 1023.2mb 61f -
6:00pm 8 8 mph 1023.2mb 61f 63f
5:54pm 7 8 mph 1023mb 61f 63f
5:48pm 7 8 mph 1023mb 61f 63f
5:42pm 6 7 mph 1023.1mb 61f 63f
5:36pm 5 6 mph 1023.1mb 61f 63f
5:30pm 6 7 mph 1023.2mb 61f 63f
5:24pm 7 7 mph 1023.2mb 61f 64f
5:18pm 7 7 mph 1023.1mb 61f 63f
5:12pm 7 8 mph 1023.2mb 61f 63f
5:06pm 8 8 mph 1023.2mb 61f 63f
5:00pm 8 9 mph 1023.1mb 61f 64f
4:54pm 8 9 mph 1023.2mb 61f 64f
4:48pm 8 8 mph 1023.2mb 61f 64f
4:42pm 8 8 mph 1023.2mb 61f 64f
4:36pm 7 7 mph 1023.3mb 61f 64f
4:30pm 6 7 mph 1023.5mb 61f 64f
4:24pm 6 6 mph 1023.5mb 61f 64f
4:18pm 5 6 mph 1023.5mb 61f 64f
4:12pm 6 6 mph 1023.6mb 61f 64f
4:06pm 5 6 mph 1023.6mb 61f 64f
4:00pm 5 6 mph 1023.6mb 61f 64f
3:54pm 6 6 mph 1023.5mb 61f 64f
3:48pm 6 7 mph 1023.5mb 61f 64f
3:42pm 7 7 mph 1023.5mb 61f 64f
3:36pm 6 6 mph 1023.5mb 61f 64f
3:30pm 6 7 mph 1023.6mb 61f 64f
3:24pm 6 7 mph 1023.8mb 61f 64f
3:18pm 7 8 mph 1023.8mb 61f 64f
3:12pm 8 9 mph 1023.7mb 61f 64f
3:06pm 7 8 mph 1023.8mb 61f 63f
3:00pm 8 9 mph 1023.8mb 60f 63f
2:54pm 8 9 mph 1023.8mb 60f 63f
2:48pm 8 9 mph 1023.8mb 60f 63f
2:42pm 8 9 mph 1023.9mb 60f 62f
2:36pm 8 9 mph 1023.9mb 60f 62f
2:30pm 8 8 mph 1024mb 60f 62f
2:24pm 8 9 mph 1024mb 60f 62f
2:18pm 8 8 mph 1024mb 60f 62f
2:12pm 8 8 mph 1024.1mb 60f 62f
2:06pm 7 7 mph 1024.3mb 60f 63f
2:00pm 7 8 mph 1024.3mb 60f 63f
1:54pm 7 8 mph 1024.3mb 60f 63f
1:48pm 8 8 mph 1024.4mb 60f 62f
1:42pm 8 9 mph 1024.5mb 60f 62f
1:36pm 8 8 mph 1024.6mb 60f 63f
1:30pm 6 7 mph 1024.7mb 60f 63f
1:24pm 2 5 mph 1024.7mb 60f 67f
1:18pm  -  5 mph 1024.9mb 60f 67f
1:12pm 5 8 mph 1025.1mb 60f 66f
1:06pm 3 9 mph 1025.3mb 60f 66f
1:00pm 5 9 mph 1025.3mb 60f 66f
12:54pm 6 8 mph 1025.4mb 60f 66f
12:48pm 5 9 mph 1025.4mb 60f 66f
12:42pm 7 10 mph 1025.5mb 60f 66f
12:36pm 6 8 mph 1025.5mb 60f 66f
12:30pm 7 8 mph 1025.7mb 60f 65f
12:24pm 6 7 mph 1025.8mb 60f 65f
12:18pm 5 9 mph 1025.9mb 60f 65f
12:12pm 6 10 mph 1026.1mb 60f 65f
12:06pm 7 10 mph 1026.2mb 60f 64f
12:00pm 7 10 mph 1026.4mb 60f 64f
11:54am 7 10 mph 1026.5mb 60f 64f
11:48am 8 10 mph 1026.6mb 60f 63f
11:42am 5 8 mph 1026.8mb 60f 63f
11:36am 6 8 mph 1026.9mb 60f 63f
11:30am 6 8 mph 1027mb 60f 63f
11:24am 7 9 mph 1027.2mb 60f 62f
11:18am 7 8 mph 1027.4mb 60f 62f
11:12am 6 8 mph 1027.5mb 60f 62f
11:06am 7 8 mph 1027.6mb 60f 61f
11:00am 6 8 mph 1027.6mb 60f 61f
10:54am 5 8 mph 1027.7mb 60f 60f
10:48am 6 8 mph 1027.9mb 60f 60f
10:42am 6 7 mph 1027.9mb 60f 60f
10:36am 6 8 mph 1028mb 60f 59f
10:30am 6 8 mph 1028mb 60f 59f
10:24am 6 7 mph 1028mb 60f 58f
10:18am 6 7 mph 1028mb 60f 58f
10:12am 6 7 mph 1028mb 60f 57f
10:06am 6 8 mph 1028mb 60f 56f
10:00am 6 8 mph 1028.1mb 60f 56f
9:54am 7 7 mph 1028mb 60f 56f
9:48am 6 8 mph 1028.1mb 60f 55f
9:42am 6 7 mph 1028.1mb 60f 54f
9:36am 5 7 mph 1028.1mb 60f 54f
9:30am 6 7 mph 1028.1mb 60f 54f
9:24am 6 8 mph 1028.2mb 60f 53f
9:18am 6 8 mph 1028.2mb 60f 53f
9:12am 7 7 mph 1028.2mb 60f 52f
9:06am 6 7 mph 1028.2mb 60f 52f
9:00am 6 8 mph 1028.2mb 60f 52f
8:54am 5 7 mph 1028.3mb 60f 51f
8:48am 7 8 mph 1028.3mb 60f 51f
8:42am 7 9 mph 1028.3mb 60f 50f
8:36am 8 10 mph 1028.2mb 60f 49f
8:30am 9 11 mph 1028.1mb 60f 49f
8:24am 8 10 mph 1028.2mb 60f 49f
8:18am 8 9 mph 1028.1mb 60f 49f
8:12am 8 9 mph 1028.1mb 60f 49f
8:06am 8 10 mph 1028.2mb 60f 49f
8:00am 8 10 mph 1028.3mb 60f 49f
7:54am 8 10 mph 1028.3mb 60f 48f
7:48am 9 9 mph 1028.3mb 60f 48f
7:42am 9 9 mph 1028mb 60f 48f
7:36am 8 8 mph 1027.8mb 60f 48f
7:30am 8 8 mph 1027.8mb 60f 47f
7:24am 8 9 mph 1027.8mb 60f 47f
7:18am 9 10 mph 1027.8mb 60f 47f
7:12am 9 10 mph 1027.7mb 60f 47f
7:06am 9 10 mph 1027.7mb 60f 47f
7:00am 9 10 mph 1027.5mb 60f 47f
6:48am 8 9 mph 1027.3mb 60f 47f
6:42am 8 9 mph 1027.2mb 60f 47f
6:36am 8 8 mph 1027.3mb 60f 47f
6:30am 8 9 mph 1027.2mb 60f 47f
6:24am 8 8 mph 1027.3mb 60f 47f
6:18am 7 8 mph 1027.2mb 60f 47f
6:12am 7 8 mph 1027.2mb 60f 47f
6:06am 7 8 mph 1027.2mb 60f 48f
6:00am 8 8 mph 1027.2mb 60f 47f
5:54am 8 8 mph 1027.2mb 60f 48f
5:48am 7 7 mph 1027.1mb 61f 48f
5:42am 6 8 mph 1027mb 61f 48f
5:36am 6 7 mph 1027mb 61f 48f
5:30am 6 8 mph 1027mb 61f 48f
5:24am 7 8 mph 1027mb 61f 48f
5:18am 8 8 mph 1027mb 61f 48f
5:12am 7 7 mph 1027mb 61f 47f
5:06am 6 7 mph 1027.1mb 61f 48f
5:00am 5 6 mph 1027.1mb 61f 48f
4:54am 7 7 mph 1027.2mb 61f 47f
4:48am 7 7 mph 1027.3mb 61f 47f
4:42am 6 7 mph 1027.3mb 61f 47f
4:36am 6 7 mph 1027.3mb 61f 48f
4:30am 6 7 mph 1027.3mb 61f 47f
4:24am 7 9 mph 1027.5mb 61f 47f
4:18am 8 9 mph 1027.5mb 61f 47f
4:12am 8 9 mph 1027.6mb 61f 47f
4:06am 8 9 mph 1027.6mb 61f 47f
4:00am 8 8 mph 1027.9mb 61f 47f
3:54am 8 9 mph 1027.9mb 61f 47f
3:48am 8 10 mph 1028mb 61f 47f
3:42am 8 8 mph 1028mb 61f 47f
3:36am 8 10 mph 1028mb 61f 48f
3:30am 9 10 mph 1028.1mb 61f 48f
3:24am 9 11 mph 1028.3mb 61f 48f
3:18am 10 11 mph 1028.4mb 61f 48f
3:12am 9 13 mph 1028.5mb 61f 48f
3:06am 11 13 mph 1028.4mb 61f 48f
3:00am 10 13 mph 1028.4mb 61f 48f
2:54am 10 14 mph 1028.4mb 61f 48f
2:48am 10 14 mph 1028.3mb 61f 48f
2:42am 13 15 mph 1028.4mb 61f 49f
2:36am 10 13 mph 1028.4mb 61f 49f
2:30am 11 15 mph 1028.3mb 61f 50f
2:24am 8 9 mph 1028.2mb 61f 52f
2:18am 8 9 mph 1028.2mb 61f 52f
2:12am 8 9 mph 1028.2mb 61f 52f
2:06am 9 9 mph 1028.2mb 61f 52f
2:00am 8 8 mph 1028.2mb 61f 53f
1:54am 8 8 mph 1028mb 61f 53f
1:48am 7 8 mph 1027.9mb 61f 53f
1:42am 6 7 mph 1027.9mb 61f 54f
1:36am 6 6 mph 1027.8mb 61f 53f
1:30am 5 6 mph 1027.8mb 61f 53f
1:24am 6 6 mph 1027.9mb 61f 53f
1:18am 6 6 mph 1027.9mb 61f 54f
1:12am 6 7 mph 1027.9mb 61f 53f
1:06am 7 7 mph 1028mb 61f 52f
1:00am 7 8 mph 1028.2mb 61f 53f
12:54am 8 9 mph 1028.1mb 61f 54f
12:48am 7 9 mph 1028.1mb - -
12:42am 2 3 mph 1028.1mb - -
12:36am 2 2 mph 1028.2mb - -
12:30am 2 2 mph 1028.2mb 61f 58f
12:24am 3 5 mph 1028.3mb 61f 58f
12:18am 3 3 mph 1028.3mb 61f 56f
12:12am 5 9 mph 1028.4mb 61f 56f
12:06am 7 9 mph 1028.4mb 61f 54f
12:00am 3 3 mph 1028.5mb 61f 56f
Sun 12/10 11:54pm 3 3 mph 1028.6mb 61f 56f
11:48pm 2 3 mph 1028.6mb 61f 57f
11:42pm 3 6 mph 1028.6mb 61f 57f
11:36pm 3 6 mph 1028.6mb 61f 56f
11:30pm 5 6 mph 1028.5mb 61f 56f
11:24pm 5 8 mph 1028.6mb 61f 55f
11:18pm  -  5 mph 1028.7mb 61f 58f
11:12pm 1 2 mph 1028.6mb 61f 60f
11:06pm 1 2 mph 1028.6mb 61f 60f
11:00pm 1 2 mph 1028.7mb 61f 61f
10:54pm 1 2 mph 1028.7mb 61f 60f
10:48pm 1 2 mph 1028.8mb 61f 61f
10:42pm 2 3 mph 1028.8mb 61f 62f
10:36pm 3 3 mph 1028.8mb 61f 62f
10:30pm 3 5 mph 1028.8mb 61f 62f
10:24pm 3 5 mph 1028.7mb 61f 62f
10:18pm 5 5 mph 1028.9mb 61f 62f
10:12pm 5 5 mph 1028.8mb 61f 62f
10:06pm 3 3 mph 1028.9mb 61f 62f
10:00pm 3 5 mph 1028.9mb 61f 62f
9:54pm 3 3 mph 1028.9mb 61f 62f
9:48pm 3 3 mph 1028.8mb 61f 62f
9:42pm 3 3 mph 1029mb 61f 62f
9:36pm 3 3 mph 1029mb 61f 62f
9:30pm 3 3 mph 1029.1mb 61f 62f
9:24pm 2 3 mph 1029.1mb 61f 62f
9:18pm 3 5 mph 1029mb 61f 62f
9:12pm 3 5 mph 1029.1mb 61f 62f
9:06pm 3 3 mph 1029.1mb 61f 62f
9:00pm 3 3 mph 1029mb 61f 62f
8:54pm 3 5 mph 1029mb 61f 62f
8:48pm 5 5 mph - - -
8:42pm 3 5 mph 1028.9mb 61f 62f
8:36pm 5 6 mph 1029mb 61f 62f
8:30pm 5 6 mph 1029mb 61f 62f
8:24pm 5 6 mph 1029mb 61f 62f
8:18pm 5 6 mph 1029.1mb 61f 62f
8:12pm 6 6 mph 1029.1mb 61f 62f
8:06pm 5 6 mph 1029.1mb 61f 62f
8:00pm 5 6 mph 1029.1mb 61f 62f
7:54pm 6 6 mph 1029mb 61f 62f
7:48pm 6 6 mph 1029mb 61f 62f
7:42pm 5 5 mph 1029.1mb 61f 62f
7:36pm 3 5 mph 1029.2mb 61f 62f
7:30pm 3 5 mph 1029.3mb 61f 62f
7:24pm 3 5 mph 1029.3mb 61f 62f
7:18pm 5 5 mph 1029.2mb 61f 62f
7:12pm 5 5 mph 1029.1mb 61f 62f
7:06pm 5 5 mph 1029.1mb 61f 62f
7:00pm 5 6 mph 1029.2mb 61f 62f
6:54pm 5 5 mph 1029.2mb 61f 62f
6:48pm 3 3 mph - - -
6:42pm 3 5 mph 1029.1mb 61f 62f
6:36pm 3 5 mph 1029.2mb 61f 62f
6:30pm 3 5 mph 1029.1mb 61f 62f
6:24pm 5 5 mph 1029.1mb 61f 62f
6:18pm 5 5 mph 1029.1mb 61f 61f
6:12pm 5 6 mph 1029mb 61f 61f
6:06pm 3 5 mph 1028.8mb 61f 61f
6:00pm 3 5 mph 1028.8mb 61f 61f
5:54pm 3 5 mph 1028.8mb 61f 61f
5:48pm 3 3 mph 1028.8mb 61f 61f
5:42pm 3 5 mph 1028.8mb 61f 61f
5:36pm 3 5 mph 1028.8mb 61f 61f
5:30pm 5 5 mph 1028.8mb 61f 61f
5:24pm 3 5 mph 1028.8mb 61f 61f
5:18pm 5 6 mph 1028.8mb 61f 61f
5:12pm 5 6 mph 1028.8mb 61f 61f
5:06pm 6 6 mph 1028.8mb 61f 61f
5:00pm 5 6 mph 1028.7mb 60f 61f
4:54pm 6 6 mph 1028.8mb 60f 61f
4:48pm 5 6 mph 1028.7mb 60f 61f
4:42pm 3 5 mph 1028.7mb 60f 62f
4:36pm 3 6 mph 1028.8mb 60f 62f
4:30pm 5 7 mph 1028.7mb 60f 62f
4:24pm 6 7 mph 1028.7mb 60f 62f
4:18pm 6 7 mph 1028.6mb 60f 62f
4:12pm 6 8 mph 1028.7mb 60f 62f
4:06pm 7 7 mph 1028.7mb 60f 62f
4:00pm 6 8 mph 1028.7mb 60f 62f
3:54pm 7 8 mph 1028.7mb 60f 62f
3:48pm 7 7 mph 1028.7mb 60f 62f
3:42pm 7 8 mph 1028.7mb 60f 62f
3:36pm 7 8 mph 1028.7mb 60f 62f
3:30pm 7 8 mph 1028.7mb 60f 61f
3:24pm 7 8 mph 1028.7mb 60f 61f
3:18pm 7 8 mph 1028.7mb 60f 61f
3:12pm 7 8 mph 1028.7mb 60f 61f
3:06pm 7 8 mph 1028.6mb 60f 61f
3:00pm 7 8 mph 1028.6mb 60f 61f
2:54pm 7 8 mph 1028.6mb 60f 61f
2:48pm 7 8 mph 1028.8mb 60f 61f
2:42pm 7 8 mph 1028.8mb 60f 61f
2:36pm 7 8 mph 1028.9mb 60f 61f
2:30pm 7 7 mph 1028.9mb 60f 61f
2:24pm 7 7 mph 1029mb 59f 61f
2:18pm 7 8 mph 1029mb 59f 61f
2:12pm 7 8 mph 1029mb 59f 61f
2:06pm 8 8 mph 1029mb 59f 60f
2:00pm 7 8 mph 1029.1mb 59f 60f
1:54pm 7 8 mph 1029.1mb 59f 60f
1:48pm 6 7 mph 1029.2mb 59f 60f
1:42pm 6 7 mph 1029.1mb 59f 60f
1:36pm 6 7 mph 1029.1mb 59f 60f
1:30pm 6 7 mph 1029.3mb 59f 60f
1:24pm 6 8 mph 1029.4mb 59f 61f
1:18pm 7 8 mph 1029.5mb 59f 61f
1:12pm 7 9 mph 1029.7mb 59f 61f
1:06pm 6 8 mph 1029.8mb 59f 61f
1:00pm 7 8 mph 1029.9mb 58f 61f
12:54pm 7 9 mph 1030mb 58f 61f
12:48pm 7 9 mph 1030.1mb 58f 61f
12:42pm 8 9 mph 1030.2mb 58f 61f
12:36pm 8 9 mph 1030.4mb 58f 60f
12:30pm 8 9 mph 1030.5mb 58f 60f
12:24pm 8 9 mph 1030.5mb 58f 60f
12:18pm 8 9 mph 1030.7mb 58f 60f
12:12pm 8 9 mph 1030.8mb 58f 60f
12:06pm 8 9 mph 1030.9mb 58f 60f
12:00pm 8 9 mph 1030.8mb 58f 59f
11:54am 8 9 mph 1030.8mb 58f 59f
11:48am 8 9 mph 1030.8mb 58f 59f
11:42am 8 9 mph 1030.9mb 58f 59f
11:36am 8 8 mph 1030.9mb 58f 59f
11:30am 7 8 mph 1031mb 58f 58f
11:24am 7 9 mph 1031.1mb 58f 58f
11:18am 9 10 mph 1031.1mb 58f 58f
11:12am 10 10 mph 1031.1mb 58f 57f
11:06am 8 9 mph 1031.2mb 58f 58f
11:00am 8 9 mph 1031.3mb 58f 59f
10:54am 8 9 mph 1031.1mb 58f 59f
10:48am 9 10 mph 1031mb 58f 59f
10:42am 8 10 mph 1031.1mb 58f 59f
10:36am 7 9 mph 1031.1mb 58f 58f
10:30am 7 8 mph 1031.1mb 58f 58f
10:24am 7 8 mph 1031.1mb 58f 58f
10:18am 7 8 mph 1030.9mb 58f 57f
10:12am 6 7 mph 1031mb 58f 57f
10:06am 7 8 mph 1031.1mb 58f 57f
10:00am 7 8 mph 1031mb 58f 57f
9:54am 7 9 mph 1031mb 58f 56f
9:48am 8 9 mph 1031.1mb 58f 56f
9:42am 8 9 mph 1031.1mb 58f 56f
9:36am 8 9 mph 1031mb 58f 56f
9:30am 8 9 mph 1031.2mb 58f 55f
9:24am 8 9 mph 1031.2mb 58f 55f
9:18am 8 9 mph 1031mb 58f 55f
9:12am 8 9 mph 1031mb 58f 55f
9:06am 8 9 mph 1030.9mb 58f 55f
9:00am 8 9 mph 1030.7mb 58f 54f
8:54am 8 9 mph 1030.6mb 58f 54f
8:48am 8 9 mph 1030.5mb 58f 54f
8:42am 7 9 mph 1030.4mb 58f 53f
8:36am 8 9 mph 1030.4mb 58f 53f
8:30am 8 9 mph 1030.3mb 58f 53f
8:24am 7 9 mph 1030.3mb 58f 53f
8:18am 7 9 mph 1030.2mb 58f 52f
8:12am 8 9 mph 1030.1mb 58f 52f
8:06am 8 10 mph 1030.2mb 58f 52f
8:00am 9 10 mph 1030.3mb 58f 51f
7:54am 8 10 mph 1030.2mb 58f 51f
7:48am 8 10 mph 1030.1mb 58f 51f
7:42am 9 11 mph 1030mb 58f 51f
7:36am 10 11 mph 1030.1mb 58f 51f
7:30am 10 11 mph 1030mb 58f 51f
7:24am 9 10 mph 1029.9mb 58f 51f
7:18am 8 10 mph 1029.8mb 58f 51f
7:12am 7 8 mph 1029.7mb 58f 50f
7:06am 5 6 mph 1029.7mb 58f 50f
7:00am 5 6 mph 1029.6mb 58f 50f
6:54am 5 6 mph 1029.6mb 58f 49f
6:48am 6 7 mph 1029.6mb 58f 50f
6:42am 6 7 mph 1029.5mb 58f 50f
6:36am 6 8 mph 1029.4mb 58f 50f
6:30am 7 8 mph 1029.3mb 58f 51f
6:24am 7 8 mph 1029.2mb 58f 50f
6:18am 8 9 mph 1029.2mb 58f 50f
6:12am 9 10 mph 1029.1mb 58f 51f
6:06am 9 10 mph 1029mb 58f 52f
6:00am 8 9 mph 1029mb 58f 52f
5:54am 8 8 mph 1028.8mb 58f 53f
5:48am 8 8 mph 1028.8mb 58f 55f
5:42am 8 8 mph 1028.7mb 58f 54f
5:36am 8 8 mph 1028.7mb 58f 53f
5:30am 7 7 mph 1028.6mb 58f 54f
5:24am 7 8 mph 1028.5mb 58f 55f
5:18am 7 8 mph 1028.4mb 58f 55f
5:12am 7 9 mph 1028.3mb 58f 53f
5:06am 6 7 mph 1028.3mb 58f 52f
5:00am 7 8 mph 1028.3mb 58f 52f
4:54am 6 7 mph 1028.2mb 58f 52f
4:48am 6 7 mph 1028.2mb 58f 53f
4:42am 7 7 mph 1028.2mb 58f 53f
4:36am 6 7 mph 1028.1mb 58f 53f
4:30am 7 7 mph 1028.1mb 58f 53f
4:24am 6 7 mph 1028.1mb 58f 53f
4:18am  -  mph 1028.1mb 58f 53f
4:12am  -  mph 1028mb 58f 53f
4:06am  -  mph 1028mb 58f 54f
4:00am 6 7 mph 1028mb 58f 54f
3:54am 7 8 mph 1028mb 58f 54f
3:48am 8 9 mph 1027.9mb 58f 53f
3:42am 8 9 mph 1027.9mb 58f 53f
3:36am 10 11 mph 1027.9mb 58f 53f
3:30am 8 11 mph 1027.9mb 58f 53f
3:24am 6 8 mph 1027.7mb 58f 52f
3:18am 8 8 mph 1027.6mb 58f 53f
3:12am 8 8 mph 1027.6mb 58f 52f
3:06am 7 7 mph 1027.6mb 58f 52f
3:00am 7 8 mph 1027.6mb 58f 51f
2:54am 8 8 mph 1027.7mb 58f 51f
2:48am 7 8 mph 1027.7mb 58f 51f
2:42am 8 9 mph 1027.7mb 58f 51f
2:36am 9 10 mph 1027.8mb 58f 50f
2:30am 9 9 mph 1028mb 58f 50f
2:24am 8 9 mph 1027.9mb 58f 50f
2:18am 8 9 mph 1027.9mb 58f 51f
2:12am 9 10 mph 1028mb 58f 50f
2:06am 10 10 mph 1028.1mb 58f 50f
2:00am 9 9 mph 1028.1mb 58f 50f
1:54am 9 9 mph 1028mb 58f 51f
1:48am 9 10 mph 1027.9mb 58f 51f
1:42am 9 10 mph 1027.9mb 58f 51f
1:36am 9 10 mph 1027.9mb 58f 51f
1:30am 9 10 mph 1027.8mb 58f 50f
1:24am 9 9 mph 1027.8mb 58f 51f
1:18am 9 9 mph 1027.7mb 58f 51f
1:12am 10 10 mph 1027.8mb 58f 50f
1:06am 10 10 mph 1027.8mb 58f 51f
1:00am 10 13 mph 1027.7mb 58f 51f
12:54am 11 13 mph 1027.8mb 58f 52f
12:48am 8 8 mph 1027.8mb 58f 53f
12:42am 7 8 mph 1027.6mb 58f 53f
12:36am 8 8 mph 1027.7mb 58f 53f
12:30am 8 8 mph 1027.6mb 58f 52f
12:24am 8 9 mph 1027.6mb 58f 52f
12:18am 8 9 mph 1027.7mb 58f 53f
12:12am 6 8 mph 1027.6mb 58f 55f
12:06am 7 8 mph 1027.7mb 58f 56f
12:00am 6 7 mph 1027.7mb 58f 56f
Sat 12/09 11:54pm 6 7 mph 1027.8mb 58f 56f
11:48pm 5 5 mph 1028mb 58f -
11:42pm 5 5 mph 1028.1mb 58f -
11:36pm 2 2 mph 1028.1mb 58f -
11:30pm 2 3 mph 1028.1mb 58f 58f
11:24pm 3 3 mph 1028.2mb 58f 57f
11:18pm 3 3 mph 1028.2mb 58f 56f
11:12pm 3 5 mph 1028.3mb 58f 56f
11:06pm 3 6 mph 1028.3mb 58f 56f
11:00pm 6 7 mph 1028.3mb 58f 54f
10:54pm 7 7 mph 1028.4mb 58f 54f
10:48pm 6 7 mph 1028.3mb 58f 54f
10:42pm 6 7 mph 1028.1mb 58f 54f
10:36pm 6 7 mph 1028mb 58f 55f
10:30pm 7 8 mph 1027.9mb 58f 54f
10:24pm 8 10 mph 1027.9mb 58f 54f
10:18pm 8 9 mph 1027.8mb 58f 54f
10:12pm 8 8 mph 1027.8mb 58f 54f
10:06pm 6 7 mph 1027.6mb 58f 54f
10:00pm 6 7 mph 1027.5mb 58f 54f
9:54pm 6 7 mph 1027.5mb 58f 53f
9:48pm 6 8 mph 1027.4mb 58f 53f
9:42pm 6 6 mph 1027.4mb 58f 54f
9:36pm 3 5 mph 1027.3mb 58f 54f
9:30pm 6 6 mph 1027.3mb 58f 54f
9:24pm 6 7 mph 1027.4mb 58f 53f
9:18pm 7 10 mph 1027.3mb 58f 52f
9:12pm 8 11 mph 1027.3mb 58f 54f
9:06pm 3 3 mph 1027.2mb 58f 58f
9:00pm 1 2 mph 1027.1mb 58f 59f
8:54pm  -  0 mph 1027mb 58f 60f
8:48pm  -  0 mph 1026.8mb 58f 61f
8:42pm  -  0 mph 1026.7mb 58f 60f
8:36pm  -  0 mph 1026.6mb 58f 61f
8:30pm  -  0 mph 1026.5mb 58f 61f
8:24pm  -  0 mph 1026.6mb 58f 60f
8:18pm  -  1 mph 1026.5mb 58f 60f
8:12pm  -  0 mph 1026.5mb 58f 59f
8:06pm  -  0 mph 1026.5mb 58f 59f
8:00pm  -  1 mph 1026.4mb 58f 59f
7:54pm  -  1 mph 1026.4mb 58f 59f
7:48pm  -  1 mph 1026.5mb 58f 59f
7:42pm  -  1 mph 1026.5mb 58f 59f
7:36pm  -  0 mph 1026.4mb 58f 60f
7:30pm  -  0 mph 1026.3mb 58f 60f
7:24pm  -  2 mph 1026.4mb 58f 60f
7:18pm 2 3 mph 1026.4mb 58f 59f
7:12pm 3 5 mph 1026.4mb 58f 59f
7:06pm 5 5 mph 1026.4mb 58f 56f
7:00pm 5 6 mph 1026.2mb 58f 56f
6:54pm 6 6 mph 1026.2mb 58f 55f
6:48pm 6 6 mph 1026.1mb 58f 56f
6:42pm 5 7 mph 1026mb 58f 56f
6:36pm 6 7 mph 1026mb 58f 57f
6:30pm  -  1 mph 1025.9mb 58f 60f
6:24pm  -  0 mph 1025.8mb 58f 61f
6:18pm  -  0 mph 1025.7mb 58f 61f
6:12pm  -  0 mph 1025.7mb 58f 60f
6:06pm  -  0 mph 1025.5mb 58f 61f
6:00pm  -  1 mph 1025.4mb 58f 61f
5:54pm 1 2 mph 1025.3mb 58f 61f
5:48pm 2 3 mph 1025.2mb 58f 62f
5:42pm 3 5 mph 1025.1mb 58f 62f
5:36pm 3 3 mph 1025mb 58f 62f
5:30pm 3 5 mph 1025.1mb 58f 62f
5:24pm 3 5 mph 1025mb 58f 62f
5:18pm 3 6 mph 1025mb 58f 62f
5:12pm 6 6 mph 1025mb 58f 63f
5:06pm 5 6 mph 1025mb 58f 63f
5:00pm 6 7 mph 1025mb 58f 63f
4:54pm 6 7 mph 1025mb 58f 63f
4:48pm 5 7 mph 1024.9mb 58f 63f
4:42pm 6 7 mph 1024.9mb 58f 63f
4:36pm 6 9 mph 1024.8mb 58f 63f
4:30pm 7 9 mph 1024.9mb 58f 63f
4:24pm 8 10 mph 1025mb 58f 63f
4:18pm 8 10 mph 1025mb 58f 63f
4:12pm 8 11 mph 1025mb 58f 63f
4:06pm 8 13 mph 1024.9mb 58f 63f
4:00pm 8 11 mph 1024.9mb 58f 63f
3:54pm 9 15 mph 1024.8mb 58f 63f
3:48pm 10 14 mph 1024.7mb 58f 63f
3:42pm 11 14 mph 1024.7mb 58f 63f
3:36pm 11 16 mph 1024.7mb 58f 63f
3:30pm 13 16 mph 1024.7mb 58f 63f
3:24pm 13 16 mph 1024.7mb 58f 62f
3:18pm 13 16 mph 1024.7mb 58f 62f
3:12pm 14 18 mph 1024.7mb 58f 62f
3:06pm 11 16 mph 1024.8mb 58f 62f
3:00pm 13 15 mph 1024.8mb 58f 62f
2:54pm 14 17 mph 1024.7mb 58f 62f
2:48pm 15 18 mph 1024.7mb 58f 62f
2:42pm 15 18 mph 1024.7mb 58f 62f
2:36pm 14 18 mph 1024.6mb 58f 61f
2:30pm 14 16 mph 1024.7mb 58f 61f
2:24pm 13 15 mph 1024.7mb 58f 61f
2:18pm 11 17 mph 1024.7mb 58f 61f
2:12pm 14 17 mph 1024.7mb 58f 61f
2:06pm 15 18 mph 1024.7mb 58f 61f
2:00pm 14 17 mph 1024.7mb 58f 60f
1:54pm 14 20 mph 1024.7mb 58f 60f
1:48pm 15 20 mph 1024.7mb 58f 60f
1:42pm 16 18 mph 1024.7mb 57f 60f
1:36pm 14 18 mph 1024.8mb 57f 60f
1:30pm 16 20 mph 1024.9mb 57f 60f
1:24pm 16 20 mph 1025mb 57f 59f
1:18pm 18 22 mph 1025mb 57f 59f
1:12pm 14 20 mph 1025.1mb 57f 59f
1:06pm 15 20 mph 1025.2mb 57f 58f
1:00pm 15 20 mph 1025.3mb 57f 58f
12:54pm 15 18 mph 1025.4mb 57f 58f
12:48pm 13 18 mph 1025.5mb 57f 58f
12:42pm 14 17 mph 1025.6mb 57f 58f
12:36pm 16 20 mph 1025.7mb 57f 57f
12:30pm 14 21 mph 1025.8mb 57f 57f
12:24pm 15 18 mph 1025.9mb 57f 57f
12:18pm 14 18 mph 1026mb 57f 57f
12:12pm 14 18 mph 1026.1mb 57f 57f
12:06pm 14 16 mph 1026.1mb 57f 57f
12:00pm 15 18 mph 1026.2mb 57f 56f
11:54am 14 18 mph 1026.3mb 57f 57f
11:48am 11 17 mph 1026.3mb 57f 56f
11:42am 13 16 mph 1026.3mb 57f 56f
11:36am 13 16 mph 1026.4mb 57f 56f
11:30am 13 16 mph 1026.5mb 57f 56f
11:24am 10 17 mph 1026.4mb 57f 55f
11:18am 11 15 mph 1026.5mb 57f 55f
11:12am 11 15 mph 1026.6mb 57f 55f
11:06am 11 15 mph 1026.7mb 57f 54f
11:00am 10 14 mph 1026.7mb 57f 54f
10:54am 9 13 mph 1026.7mb 57f 53f
10:48am 11 14 mph 1026.8mb 57f 53f
10:42am 13 15 mph 1026.8mb 57f 53f
10:36am 13 16 mph 1026.8mb 57f 52f
10:30am 14 16 mph 1026.8mb 57f 51f
10:24am 15 17 mph 1026.9mb 57f 51f
10:18am 11 16 mph 1026.9mb 57f 50f
10:12am 10 17 mph 1026.9mb 57f 50f
10:06am 13 18 mph 1026.8mb 57f 49f
10:00am 17 21 mph 1026.8mb 57f 49f
9:54am 14 18 mph 1026.8mb 57f 49f
9:48am 15 18 mph 1026.8mb 57f 48f
9:42am 16 21 mph 1026.7mb 57f 48f
9:36am 14 20 mph 1026.6mb 57f 48f
9:30am 15 21 mph 1026.7mb 57f 47f
9:24am 16 22 mph 1026.5mb 57f 47f
9:18am 16 20 mph 1026.4mb 57f 47f
9:12am 16 21 mph 1026.3mb 57f 47f
9:06am 16 21 mph 1026.2mb 57f 46f
9:00am 16 20 mph 1026.2mb 57f 46f
8:54am 15 21 mph 1026.1mb 57f 46f
8:48am 15 21 mph 1026mb 57f 46f
8:42am 16 18 mph 1025.9mb 58f 45f
8:36am 11 16 mph 1025.9mb 58f 45f
8:30am 14 17 mph 1026mb 58f 44f
8:24am 13 17 mph 1025.9mb 58f 44f
8:18am 13 16 mph 1025.8mb 58f 44f
8:12am 13 15 mph 1025.7mb 58f 44f
8:06am 14 17 mph 1025.6mb 58f 43f
8:00am 11 16 mph 1025.5mb 58f 43f
7:54am 13 15 mph 1025.4mb 58f 43f
7:30am 11 14 mph 1025.4mb 58f 42f
7:06am 10 14 mph 1025.1mb 58f 42f
6:48am 9 13 mph 1024.9mb 58f 42f
6:42am 11 14 mph 1024.8mb 58f 42f
6:24am 13 15 mph 1024.7mb 58f 42f
4:42am 10 14 mph 1023.9mb 58f 42f
4:30am 10 13 mph 1023.9mb 58f 42f
4:18am 10 14 mph 1023.9mb 58f 42f
3:18am 10 14 mph 1023.7mb 58f 42f
3:12am 10 14 mph 1023.7mb 58f 42f
3:00am 11 14 mph 1023.6mb 58f 42f
1:30am 13 16 mph 1023.9mb 59f 43f
1:24am 11 16 mph 1023.8mb 59f 42f
1:18am 13 16 mph 1023.8mb 59f 42f
1:12am 13 15 mph 1023.8mb 59f 43f
1:06am 13 15 mph 1023.8mb 59f 43f
1:00am 13 15 mph 1023.8mb 59f 43f
12:54am 11 15 mph 1023.8mb 59f 43f
12:48am 11 15 mph - 59f -
12:42am 11 16 mph - 59f -
12:36am 14 20 mph - 59f -
12:30am 14 18 mph 1023.9mb 59f 43f
12:24am 13 16 mph 1023.9mb 59f 43f
12:18am 13 15 mph 1023.9mb 59f 43f
12:12am 13 16 mph 1024mb 59f 44f
12:06am 14 16 mph 1024mb 59f 44f
12:00am 13 16 mph 1024.1mb 59f 43f
Fri 12/08 11:54pm 13 16 mph 1024.1mb 59f 43f
11:48pm 13 15 mph 1024.2mb 59f 43f
11:42pm 11 15 mph 1024.2mb 59f 43f
11:36pm 13 18 mph 1024.2mb 59f 44f
11:30pm  -  mph 1024.2mb 59f 45f
11:24pm  -  mph 1024.3mb 59f 44f
11:18pm  -  mph 1024.4mb 59f 44f
11:12pm  -  mph 1024.4mb 59f 45f
11:06pm  -  mph 1024.4mb 59f 44f
11:00pm  -  mph 1024.4mb 59f 44f
10:54pm  -  mph 1024.5mb 59f 44f
10:48pm  -  mph 1024.5mb 59f 44f
10:42pm  -  mph 1024.6mb 59f 44f
10:36pm  -  mph 1024.5mb 59f 44f
10:30pm 11 14 mph 1024.6mb 59f 44f
10:24pm 11 14 mph 1024.5mb 59f 45f
10:18pm  -  mph 1024.5mb 59f 45f
10:12pm  -  mph 1024.4mb 59f 45f
10:06pm  -  mph 1024.2mb 59f 45f
10:00pm 11 14 mph 1024.2mb 59f 45f
9:54pm 13 16 mph 1024.1mb 59f 46f
9:48pm  -  mph 1024.1mb 59f 45f
9:42pm  -  mph 1024.1mb 59f 45f
9:36pm  -  mph 1024.1mb 59f 44f
9:30pm 11 15 mph 1023.9mb 59f 45f
9:24pm 13 16 mph 1023.9mb 59f 45f
9:18pm 14 17 mph 1023.8mb 59f 45f
9:12pm 13 15 mph 1023.8mb 59f 45f
9:06pm 13 17 mph 1023.7mb 59f 45f
9:00pm  -  mph 1023.7mb 59f 45f
8:54pm  -  mph 1023.7mb 59f 46f
8:48pm  -  mph 1023.6mb 59f 46f
8:42pm  -  mph 1023.6mb 59f 46f
8:36pm  -  mph 1023.5mb 59f 46f
8:30pm 13 16 mph 1023.5mb 59f 45f
8:24pm 13 16 mph 1023.5mb 59f 44f
8:18pm 14 16 mph 1023.3mb 59f 45f
8:12pm 11 15 mph 1023.3mb 59f 45f
8:06pm 14 15 mph 1023.3mb 59f 45f
8:00pm  -  mph 1023.3mb 59f 45f
7:54pm  -  mph 1023.3mb 59f 45f
7:48pm 13 15 mph 1023.3mb 59f 45f
7:42pm 13 15 mph 1023.3mb 59f 46f
7:36pm 14 16 mph 1023.3mb 59f 46f
7:30pm 13 16 mph 1023.2mb 59f 46f
7:24pm 13 15 mph 1023.2mb 59f 46f
7:18pm  -  mph 1023.2mb 59f 46f
7:12pm  -  mph 1023.1mb 59f 46f
7:06pm  -  mph 1023mb 59f 46f
7:00pm 11 14 mph 1023mb 59f 46f
6:54pm 11 14 mph 1022.9mb 59f 46f
6:48pm 13 15 mph 1022.7mb 59f 46f
6:42pm 14 17 mph 1022.5mb 59f 47f
6:36pm 14 16 mph 1022.5mb 59f 47f
6:30pm  -  mph 1022.5mb 59f 47f
6:24pm  -  mph 1022.5mb 59f 47f
6:18pm  -  mph 1022.5mb 59f 47f
6:12pm  -  mph 1022.4mb 59f 47f
6:06pm  -  mph 1022.4mb 58f 47f
6:00pm 11 14 mph 1022.3mb 58f 46f
5:54pm 10 14 mph 1022.3mb 59f 46f
5:48pm 11 13 mph 1022.3mb 59f 46f
5:42pm 11 13 mph 1022.3mb 59f 46f
5:36pm 10 11 mph 1022.3mb 59f 46f
5:30pm 9 10 mph 1022.3mb 59f 46f
5:24pm 8 11 mph 1022.3mb 59f 46f
5:18pm 9 10 mph 1022.3mb 59f 46f
5:12pm 8 10 mph 1022.3mb 59f 46f
5:06pm 8 11 mph 1022.3mb 59f 46f
5:00pm 10 11 mph 1022.2mb 59f 46f
4:54pm 9 11 mph 1022.2mb 59f 46f
4:48pm 9 11 mph 1022.2mb 59f 46f
4:42pm 10 13 mph 1022.1mb 59f 45f
4:36pm 9 13 mph 1022.2mb 60f 45f
4:30pm 10 15 mph 1022.4mb 60f 45f
4:24pm 11 15 mph 1022.3mb 60f 45f
4:18pm 13 14 mph 1022.4mb 60f 45f
4:12pm 11 14 mph 1022.4mb 60f 44f
4:06pm 10 11 mph 1022.4mb 60f 44f
4:00pm  -  mph 1022.4mb 60f 44f
3:54pm  -  mph 1022.4mb 60f 44f
3:48pm  -  mph 1022.5mb 60f 44f
3:42pm  -  mph 1022.4mb 59f 44f
3:36pm  -  mph 1022.6mb 59f 44f
3:30pm  -  mph 1022.4mb 59f 44f
3:24pm  -  mph 1022.6mb 59f 44f
3:18pm  -  mph 1022.6mb 59f 43f
3:12pm  -  mph 1022.4mb 59f 43f
3:06pm  -  mph 1022.8mb 59f 43f
3:00pm  -  mph 1023.1mb 59f 42f
2:54pm  -  mph 1023.1mb 59f 42f
2:48pm  -  mph 1023.1mb 59f 41f
2:30pm 10 15 mph 1023.3mb 59f 41f
2:24pm 13 15 mph 1023.6mb 59f 41f
2:18pm  -  mph 1023.6mb 58f 41f
2:12pm  -  mph 1023.8mb 58f 41f
2:06pm  -  mph 1023.8mb 58f 41f
2:00pm 9 13 mph 1024mb 58f 41f
1:54pm 10 14 mph 1023.9mb 58f 40f
1:48pm 10 13 mph 1023.8mb 58f 40f
1:42pm 9 13 mph 1023.5mb 58f 40f
1:36pm 10 14 mph 1023.5mb 58f 40f
1:30pm 10 14 mph 1023.7mb 58f 40f
1:24pm 13 14 mph 1024mb 58f 39f
1:18pm  -  mph 1024.5mb 58f 39f
1:12pm  -  mph 1024.5mb 59f 39f
1:06pm  -  mph 1024.8mb 59f 39f
1:00pm 10 14 mph 1024.9mb 59f 39f
12:54pm 10 14 mph 1025.2mb 59f 39f
12:48pm  -  mph 1025.3mb 59f 38f
12:42pm  -  mph 1025.2mb 59f 38f
12:36pm  -  mph 1025mb 59f 38f
12:30pm 10 13 mph 1024.7mb 59f 38f
12:24pm 10 14 mph 1025.4mb 58f 38f
12:18pm  -  mph 1025.3mb 58f 37f
12:12pm  -  mph 1025.8mb 58f 37f
12:06pm  -  mph 1025.8mb 58f 37f
12:00pm 13 15 mph 1026.4mb 59f 37f
11:54am 11 16 mph 1026.4mb 59f 37f
11:48am  -  mph 1026.5mb 58f 37f
11:42am  -  mph 1026.2mb 58f 37f
11:36am  -  mph 1026.2mb 58f 38f
11:30am 11 15 mph 1025.9mb 58f 38f
11:24am 9 14 mph 1026.3mb 58f 37f
11:18am 8 13 mph 1026.5mb 58f 37f
11:12am 9 11 mph 1026.7mb 58f 36f
11:06am 8 14 mph 1027mb 58f 37f
11:00am 11 14 mph 1027.4mb 58f 36f
10:54am 11 14 mph 1027.5mb 58f 36f
10:48am 10 13 mph 1027.6mb 58f 36f